TimeCST,TemperatureF,Dew PointF,Humidity,Sea Level PressureIn,VisibilityMPH,Wind Direction,Wind SpeedMPH,Gust SpeedMPH,PrecipitationIn,Events,Conditions,WindDirDegrees,DateUTC
12:15 AM,33.8,26.6,75,30.08,1.0,Calm,Calm,-,N/A,,Overcast,0,2013-01-01 06:15:00
12:35 AM,33.8,26.6,75,30.06,0.8,Calm,Calm,-,N/A,,Overcast,0,2013-01-01 06:35:00
12:55 AM,33.8,26.6,75,30.08,0.8,Calm,Calm,-,N/A,,Overcast,0,2013-01-01 06:55:00
1:15 AM,33.8,24.8,70,30.08,0.8,Calm,Calm,-,N/A,,Overcast,0,2013-01-01 07:15:00
1:35 AM,33.8,26.6,75,30.06,1.0,North,3.5,-,N/A,,Overcast,350,2013-01-01 07:35:00
2:15 AM,33.8,26.6,75,30.08,0.5,Calm,Calm,-,N/A,,Overcast,0,2013-01-01 08:15:00
2:35 AM,33.8,26.6,75,30.08,0.5,Calm,Calm,-,N/A,,Overcast,0,2013-01-01 08:35:00
2:55 AM,33.8,26.6,75,30.09,0.5,NNW,4.6,-,N/A,,Overcast,330,2013-01-01 08:55:00
3:15 AM,33.8,26.6,75,30.08,7.0,NNW,5.8,-,N/A,,Overcast,330,2013-01-01 09:15:00
3:35 AM,33.8,26.6,75,30.09,7.0,NNW,4.6,-,N/A,,Overcast,330,2013-01-01 09:35:00
4:15 AM,33.8,26.6,75,30.09,10.0,NNW,6.9,-,N/A,,Overcast,340,2013-01-01 10:15:00
4:35 AM,33.8,26.6,75,30.10,10.0,North,5.8,-,N/A,,Overcast,10,2013-01-01 10:35:00
5:15 AM,33.8,24.8,70,30.10,10.0,North,6.9,-,N/A,,Overcast,10,2013-01-01 11:15:00
5:35 AM,33.8,24.8,70,30.10,10.0,NNE,6.9,-,N/A,,Overcast,20,2013-01-01 11:35:00
5:55 AM,33.8,24.8,70,30.10,10.0,North,8.1,-,N/A,,Overcast,10,2013-01-01 11:55:00
6:35 AM,33.8,24.8,70,30.11,10.0,NNE,6.9,-,N/A,,Overcast,20,2013-01-01 12:35:00
6:55 AM,33.8,24.8,70,30.10,10.0,NNE,8.1,-,N/A,,Overcast,20,2013-01-01 12:55:00
7:15 AM,33.8,24.8,70,30.12,10.0,North,4.6,-,N/A,,Overcast,10,2013-01-01 13:15:00
7:35 AM,33.8,24.8,70,30.10,10.0,North,8.1,-,N/A,,Overcast,10,2013-01-01 13:35:00
8:15 AM,33.8,24.8,70,30.11,10.0,NNE,6.9,-,N/A,,Overcast,20,2013-01-01 14:15:00
8:36 AM,33.8,24.8,70,30.13,10.0,North,5.8,-,N/A,,Overcast,10,2013-01-01 14:36:00
8:55 AM,33.8,24.8,70,30.13,10.0,North,4.6,-,N/A,,Overcast,360,2013-01-01 14:55:00
9:15 AM,33.8,24.8,70,30.15,10.0,North,3.5,-,N/A,,Overcast,350,2013-01-01 15:15:00
9:35 AM,33.8,24.8,70,30.15,10.0,North,3.5,-,N/A,,Overcast,350,2013-01-01 15:35:00
10:15 AM,33.8,24.8,70,30.15,10.0,NNW,8.1,-,N/A,,Overcast,330,2013-01-01 16:15:00
10:35 AM,32.0,23.0,69,30.13,8.0,NNW,8.1,-,N/A,,Overcast,340,2013-01-01 16:35:00
11:15 AM,30.2,21.2,69,30.14,10.0,NNW,9.2,-,N/A,,Overcast,330,2013-01-01 17:15:00
11:35 AM,30.2,19.4,64,30.15,10.0,NNW,10.4,-,N/A,,Overcast,340,2013-01-01 17:35:00
11:55 AM,28.4,19.4,69,30.16,10.0,NNW,9.2,-,N/A,,Overcast,330,2013-01-01 17:55:00
12:15 PM,28.4,19.4,69,30.16,10.0,NW,11.5,-,N/A,,Overcast,320,2013-01-01 18:15:00
12:35 PM,28.4,17.6,64,30.16,10.0,NNW,9.2,-,N/A,,Overcast,330,2013-01-01 18:35:00
1:15 PM,28.4,17.6,64,30.13,10.0,NNW,6.9,-,N/A,,Overcast,340,2013-01-01 19:15:00
1:35 PM,28.4,17.6,64,30.13,10.0,NNW,8.1,-,N/A,,Overcast,330,2013-01-01 19:35:00
2:15 PM,28.4,17.6,64,30.12,10.0,North,5.8,-,N/A,,Overcast,350,2013-01-01 20:15:00
2:55 PM,28.4,17.6,64,30.13,10.0,NNW,9.2,-,N/A,,Overcast,330,2013-01-01 20:55:00
3:15 PM,28.4,15.8,59,30.13,10.0,NNW,6.9,-,N/A,,Overcast,340,2013-01-01 21:15:00
3:35 PM,28.4,15.8,59,30.14,10.0,NNW,6.9,-,N/A,,Overcast,340,2013-01-01 21:35:00
4:15 PM,26.6,15.8,64,30.15,9.0,North,9.2,-,N/A,,Overcast,350,2013-01-01 22:15:00
4:35 PM,26.6,15.8,64,30.15,9.0,NNW,10.4,-,N/A,,Overcast,330,2013-01-01 22:35:00
5:15 PM,26.6,15.8,64,30.17,10.0,NNW,8.1,-,N/A,,Overcast,330,2013-01-01 23:15:00
5:35 PM,26.6,15.8,64,30.17,10.0,NNW,6.9,-,N/A,,Overcast,330,2013-01-01 23:35:00
6:15 PM,26.6,15.8,64,30.20,10.0,NW,11.5,-,N/A,,Overcast,310,2013-01-02 00:15:00
6:55 PM,26.6,15.8,64,30.19,10.0,NNW,9.2,-,N/A,,Overcast,330,2013-01-02 00:55:00
7:35 PM,24.8,15.8,69,30.20,10.0,NW,9.2,-,N/A,,Overcast,320,2013-01-02 01:35:00
7:55 PM,24.8,14.0,64,30.21,10.0,NNW,12.7,-,N/A,,Overcast,330,2013-01-02 01:55:00
8:15 PM,24.8,14.0,64,30.21,10.0,NW,10.4,-,N/A,,Overcast,320,2013-01-02 02:15:00
8:35 PM,24.8,14.0,64,30.21,10.0,NW,10.4,-,N/A,,Overcast,320,2013-01-02 02:35:00
9:15 PM,24.8,12.2,59,30.21,10.0,NNW,10.4,-,N/A,,Clear,340,2013-01-02 03:15:00
9:35 PM,24.8,12.2,59,30.21,10.0,NNW,9.2,-,N/A,,Mostly Cloudy,330,2013-01-02 03:35:00
10:15 PM,24.8,12.2,59,30.22,10.0,NNW,6.9,-,N/A,,Overcast,340,2013-01-02 04:15:00
10:35 PM,23.0,12.2,63,30.23,10.0,NNW,8.1,-,N/A,,Overcast,330,2013-01-02 04:35:00
10:55 PM,-9999,-9999,N/A,30.23,10.0,NNW,9.2,-,N/A,,Partly Cloudy,340,2013-01-02 04:55:00
11:15 PM,-9999,-9999,N/A,30.23,10.0,NNW,8.1,-,N/A,,Clear,340,2013-01-02 05:15:00
11:35 PM,21.2,8.6,58,30.24,10.0,NNW,6.9,-,N/A,,Clear,330,2013-01-02 05:35:00
11:55 PM,-9999,-9999,N/A,30.23,10.0,NNW,6.9,-,N/A,,Clear,340,2013-01-02 05:55:00